RYR47YB LIPE-LICC

Flight info

Callsign RYR47YB
Flight time 1h 46m
Altitude 37000
Route PELEG DCT BAGNO DCT GAVRA DCT RITEB DCT LAT DCT VAKOR DCT PELEN Q789 UXUTA
Aircraft B738/M-SDE2E3FGHIRWXY/LB1

Departure

Time 2026-05-08 05:02
Airport Bologna Guglielmo Marconi Airport (LIPE)

Arrival

Time 2026-05-08 06:48
Airport Catania-Fontanarossa Airport (LICC)
Time Latitude Longitude Altitude Speed Heading
2026-05-08 04:23 44.52988 11.29572 128 ft 0 kts 207°
2026-05-08 04:54 44.52989 11.29572 128 ft 1 kts 207°
2026-05-08 04:54 44.53002 11.29582 128 ft 2 kts 206°
2026-05-08 04:54 44.53016 11.29591 127 ft 2 kts 207°
2026-05-08 04:55 44.53029 11.29597 127 ft 2 kts 162°
2026-05-08 04:55 44.53040 11.29584 127 ft 1 kts 109°
2026-05-08 04:55 44.53043 11.29570 127 ft 0 kts 114°
2026-05-08 04:55 44.53045 11.29567 127 ft 0 kts 116°
2026-05-08 04:58 44.53044 11.29569 127 ft 0 kts 116°
2026-05-08 04:58 44.53027 11.29616 127 ft 10 kts 116°
2026-05-08 04:58 44.52992 11.29715 125 ft 12 kts 117°
2026-05-08 04:58 44.52983 11.29768 124 ft 5 kts 59°
2026-05-08 04:59 44.52996 11.29840 123 ft 10 kts 108°
2026-05-08 04:59 44.52961 11.29940 121 ft 12 kts 116°
2026-05-08 04:59 44.52909 11.30084 116 ft 18 kts 117°
2026-05-08 04:59 44.52879 11.30170 114 ft 6 kts 108°
2026-05-08 05:00 44.52874 11.30233 114 ft 6 kts 87°
2026-05-08 05:00 44.52898 11.30305 113 ft 10 kts 31°
2026-05-08 05:00 44.52964 11.30343 113 ft 10 kts
2026-05-08 05:00 44.53024 11.30311 113 ft 9 kts 306°
2026-05-08 05:01 44.53051 11.30239 115 ft 9 kts 297°
2026-05-08 05:01 44.53144 11.29973 120 ft 61 kts 295°
2026-05-08 05:01 44.53433 11.29175 121 ft 120 kts 296°
2026-05-08 05:01 44.53885 11.27919 120 ft 166 kts 296°
2026-05-08 05:02 44.54410 11.26495 709 ft 161 kts 296°
2026-05-08 05:02 44.54944 11.25052 1181 ft 171 kts 295°
2026-05-08 05:02 44.55466 11.23587 1775 ft 170 kts 295°
2026-05-08 05:02 44.55998 11.22090 2289 ft 172 kts 295°
2026-05-08 05:03 44.56531 11.20597 2797 ft 174 kts 295°
2026-05-08 05:03 44.57075 11.19078 3291 ft 177 kts 295°
2026-05-08 05:03 44.57640 11.17500 3586 ft 193 kts 295°
2026-05-08 05:03 44.58263 11.15732 3914 ft 209 kts 291°
2026-05-08 05:04 44.58466 11.13691 4202 ft 223 kts 256°
2026-05-08 05:04 44.57740 11.11732 4589 ft 233 kts 223°
2026-05-08 05:04 44.56354 11.10461 4914 ft 247 kts 196°
2026-05-08 05:04 44.54636 11.10011 5264 ft 260 kts 184°
2026-05-08 05:05 44.52790 11.09777 5700 ft 272 kts 184°
2026-05-08 05:05 44.50877 11.09506 6290 ft 278 kts 185°
2026-05-08 05:05 44.48966 11.09343 6896 ft 281 kts 171°
2026-05-08 05:05 44.47141 11.10189 7586 ft 278 kts 148°
2026-05-08 05:06 44.45676 11.11948 8222 ft 279 kts 124°
2026-05-08 05:06 44.44708 11.14288 8907 ft 280 kts 115°
2026-05-08 05:06 44.43861 11.16703 9573 ft 283 kts 115°
2026-05-08 05:06 44.42988 11.19194 10251 ft 287 kts 115°
2026-05-08 05:07 44.42081 11.21718 10646 ft 301 kts 116°
2026-05-08 05:07 44.41100 11.24398 11005 ft 317 kts 116°
2026-05-08 05:07 44.40060 11.27215 11404 ft 331 kts 117°
2026-05-08 05:07 44.38995 11.30083 12003 ft 338 kts 117°
2026-05-08 05:08 44.37910 11.33002 12649 ft 343 kts 117°
2026-05-08 05:08 44.36807 11.35968 13313 ft 348 kts 117°
2026-05-08 05:08 44.35687 11.38979 13992 ft 353 kts 118°
2026-05-08 05:08 44.34550 11.42035 14677 ft 358 kts 118°
2026-05-08 05:09 44.33398 11.45130 15367 ft 362 kts 118°
2026-05-08 05:09 44.32233 11.48253 16039 ft 367 kts 118°
2026-05-08 05:09 44.31049 11.51427 16700 ft 371 kts 118°
2026-05-08 05:09 44.29858 11.54614 17343 ft 375 kts 118°
2026-05-08 05:10 44.28646 11.57857 17979 ft 380 kts 118°
2026-05-08 05:10 44.26188 11.64414 19201 ft 388 kts 119°
2026-05-08 05:10 44.24769 11.67602 19781 ft 389 kts 129°
2026-05-08 05:11 44.22937 11.70419 20354 ft 391 kts 140°
2026-05-08 05:11 44.20771 11.72687 20912 ft 391 kts 151°
2026-05-08 05:11 44.18336 11.74351 21457 ft 391 kts 162°
2026-05-08 05:11 44.15731 11.75347 21995 ft 390 kts 173°
2026-05-08 05:12 44.13012 11.75895 22532 ft 392 kts 176°
2026-05-08 05:12 44.10322 11.76335 23055 ft 394 kts 176°
2026-05-08 05:12 44.07618 11.76775 23571 ft 396 kts 176°
2026-05-08 05:12 44.04870 11.77239 24078 ft 398 kts 176°
2026-05-08 05:13 44.02083 11.77732 24575 ft 401 kts 176°
2026-05-08 05:13 43.99347 11.78235 25081 ft 403 kts 176°
2026-05-08 05:13 43.96566 11.78760 25585 ft 405 kts 176°
2026-05-08 05:13 43.93766 11.79298 26075 ft 408 kts 176°
2026-05-08 05:14 43.90928 11.79849 26554 ft 410 kts 176°
2026-05-08 05:14 43.88114 11.80399 27017 ft 413 kts 176°
2026-05-08 05:14 43.85237 11.80964 27475 ft 416 kts 176°
2026-05-08 05:14 43.82396 11.81521 27917 ft 418 kts 176°
2026-05-08 05:15 43.79509 11.82087 28358 ft 421 kts 176°
2026-05-08 05:15 43.76595 11.82677 28787 ft 424 kts 175°
2026-05-08 05:15 43.73661 11.83447 29205 ft 429 kts 173°
2026-05-08 05:15 43.70726 11.84363 29630 ft 432 kts 171°
2026-05-08 05:16 43.67783 11.85346 30053 ft 435 kts 171°
2026-05-08 05:16 43.64848 11.86344 30464 ft 438 kts 171°
2026-05-08 05:16 43.61872 11.87352 31026 ft 435 kts 171°
2026-05-08 05:16 43.58940 11.88335 31599 ft 432 kts 171°
2026-05-08 05:17 43.56036 11.89294 32116 ft 430 kts 172°
2026-05-08 05:17 43.53111 11.90248 32620 ft 428 kts 172°
2026-05-08 05:17 43.50218 11.91182 33174 ft 426 kts 172°
2026-05-08 05:17 43.47356 11.92099 33733 ft 424 kts 172°
2026-05-08 05:18 43.44487 11.93014 34288 ft 421 kts 172°
2026-05-08 05:18 43.41636 11.93920 34822 ft 419 kts 172°
2026-05-08 05:18 43.38789 11.94822 35284 ft 417 kts 173°
2026-05-08 05:18 43.35968 11.95714 35738 ft 416 kts 173°
2026-05-08 05:19 43.33197 11.96589 36172 ft 414 kts 173°
2026-05-08 05:19 43.30394 11.97472 36579 ft 412 kts 173°
2026-05-08 05:19 43.27577 11.98358 36834 ft 412 kts 173°
2026-05-08 05:19 43.24809 11.99227 36978 ft 414 kts 172°
2026-05-08 05:20 43.21992 12.00110 36990 ft 415 kts 172°
2026-05-08 05:20 43.16415 12.01862 36969 ft 410 kts 172°
2026-05-08 05:21 43.10828 12.03613 36964 ft 411 kts 172°
2026-05-08 05:21 43.05267 12.05352 36953 ft 410 kts 172°
2026-05-08 05:22 42.99712 12.07086 36949 ft 410 kts 172°
2026-05-08 05:22 42.94153 12.08818 36942 ft 410 kts 172°
2026-05-08 05:23 42.88611 12.10542 36928 ft 410 kts 172°
2026-05-08 05:23 42.83046 12.12270 36915 ft 409 kts 172°
2026-05-08 05:24 42.77507 12.13987 36906 ft 409 kts 172°
2026-05-08 05:24 42.71981 12.15758 36902 ft 410 kts 169°
2026-05-08 05:25 42.66586 12.18405 36906 ft 416 kts 161°
2026-05-08 05:25 42.61332 12.21794 36912 ft 417 kts 159°
2026-05-08 05:26 42.56162 12.25305 36927 ft 417 kts 158°
2026-05-08 05:26 42.50980 12.28805 36941 ft 416 kts 159°
2026-05-08 05:27 42.45784 12.32271 36949 ft 416 kts 159°
2026-05-08 05:27 42.40569 12.35721 36955 ft 416 kts 159°
2026-05-08 05:28 42.35385 12.39135 36958 ft 416 kts 159°
2026-05-08 05:28 42.30191 12.42546 36958 ft 416 kts 159°
2026-05-08 05:29 42.24983 12.45958 36956 ft 416 kts 159°
2026-05-08 05:29 42.19795 12.49351 36948 ft 416 kts 159°
2026-05-08 05:30 42.14608 12.52738 36937 ft 415 kts 159°
2026-05-08 05:30 42.09386 12.56141 36927 ft 415 kts 159°
2026-05-08 05:31 42.04195 12.59518 36922 ft 416 kts 159°
2026-05-08 05:31 41.98989 12.62897 36917 ft 416 kts 159°
2026-05-08 05:32 41.93785 12.66270 36918 ft 415 kts 160°
2026-05-08 05:32 41.88585 12.69635 36915 ft 415 kts 160°
2026-05-08 05:33 41.83406 12.72980 36927 ft 415 kts 160°
2026-05-08 05:33 41.78205 12.76332 36877 ft 416 kts 160°
2026-05-08 05:34 41.72996 12.79685 36834 ft 412 kts 160°
2026-05-08 05:34 41.67845 12.82993 36924 ft 415 kts 160°
2026-05-08 05:35 41.62602 12.86352 36917 ft 415 kts 160°
2026-05-08 05:35 41.57424 12.89667 36914 ft 415 kts 160°
2026-05-08 05:36 41.52202 12.92872 36912 ft 413 kts 164°
2026-05-08 05:36 41.46828 12.95500 36911 ft 410 kts 167°
2026-05-08 05:37 41.41426 12.97963 36911 ft 411 kts 167°
2026-05-08 05:37 41.36027 13.00445 36911 ft 411 kts 166°
2026-05-08 05:38 41.30630 13.02961 36912 ft 411 kts 166°
2026-05-08 05:38 41.25244 13.05491 36912 ft 411 kts 166°
2026-05-08 05:39 41.19866 13.08025 36913 ft 412 kts 166°
2026-05-08 05:39 41.14479 13.10561 36914 ft 412 kts 166°
2026-05-08 05:40 41.09053 13.13112 36915 ft 412 kts 166°
2026-05-08 05:40 41.03689 13.15630 36915 ft 412 kts 166°
2026-05-08 05:41 40.98283 13.18163 36916 ft 411 kts 166°
2026-05-08 05:41 40.92893 13.20685 36916 ft 411 kts 166°
2026-05-08 05:42 40.87483 13.23211 36915 ft 412 kts 166°
2026-05-08 05:42 40.82083 13.25728 36912 ft 412 kts 167°
2026-05-08 05:43 40.76690 13.28238 36907 ft 412 kts 167°
2026-05-08 05:43 40.71257 13.30761 36904 ft 411 kts 167°
2026-05-08 05:44 40.65875 13.33257 36906 ft 412 kts 167°
2026-05-08 05:44 40.60486 13.35752 36907 ft 412 kts 167°
2026-05-08 05:45 40.55106 13.38238 36907 ft 411 kts 167°
2026-05-08 05:45 40.49669 13.40746 36907 ft 412 kts 167°
2026-05-08 05:46 40.44284 13.43225 36909 ft 413 kts 167°
2026-05-08 05:46 40.39234 13.45547 36909 ft 412 kts 167°
2026-05-08 05:47 40.33806 13.48040 36910 ft 412 kts 167°
2026-05-08 05:47 40.28685 13.50387 36909 ft 412 kts 167°
2026-05-08 05:48 40.23292 13.52854 36907 ft 411 kts 167°
2026-05-08 05:48 40.17993 13.55275 36906 ft 411 kts 167°
2026-05-08 05:49 40.12589 13.57738 36906 ft 411 kts 167°
2026-05-08 05:49 40.07156 13.60211 36906 ft 411 kts 167°
2026-05-08 05:50 40.01778 13.62655 36903 ft 411 kts 167°
2026-05-08 05:50 39.96360 13.65113 36898 ft 411 kts 168°
2026-05-08 05:51 39.90971 13.67554 36905 ft 410 kts 168°
2026-05-08 05:51 39.87307 13.69210 36914 ft 411 kts 168°
2026-05-08 05:52 39.81909 13.71648 36917 ft 411 kts 168°
2026-05-08 05:52 39.76513 13.74081 36916 ft 410 kts 168°
2026-05-08 05:53 39.71099 13.76518 36915 ft 411 kts 168°
2026-05-08 05:53 39.65718 13.78936 36914 ft 411 kts 168°
2026-05-08 05:54 39.60301 13.81366 36913 ft 410 kts 168°
2026-05-08 05:54 39.54898 13.83787 36913 ft 410 kts 168°
2026-05-08 05:55 39.49501 13.86200 36912 ft 410 kts 168°
2026-05-08 05:55 39.44111 13.88605 36912 ft 410 kts 168°
2026-05-08 05:56 39.38726 13.91005 36912 ft 411 kts 168°
2026-05-08 05:56 39.33310 13.93415 36912 ft 411 kts 169°
2026-05-08 05:57 39.27925 13.95807 36912 ft 411 kts 169°
2026-05-08 05:57 39.22489 13.98219 36912 ft 410 kts 169°
2026-05-08 05:58 39.17374 14.00484 36909 ft 410 kts 169°
2026-05-08 05:58 39.11949 14.02881 36910 ft 411 kts 169°
2026-05-08 05:59 39.06547 14.05266 36912 ft 411 kts 169°
2026-05-08 05:59 39.01146 14.07647 36905 ft 410 kts 170°
2026-05-08 05:59 38.98453 14.08833 36797 ft 409 kts 170°
2026-05-08 06:00 38.95792 14.10007 36510 ft 404 kts 170°
2026-05-08 06:00 38.93130 14.11182 36056 ft 403 kts 171°
2026-05-08 06:00 38.90470 14.12349 35538 ft 402 kts 171°
2026-05-08 06:00 38.87849 14.13500 35075 ft 399 kts 171°
2026-05-08 06:01 38.85578 14.14498 34695 ft 395 kts 171°
2026-05-08 06:01 38.83011 14.15680 34279 ft 393 kts 168°
2026-05-08 06:01 38.80475 14.17054 33845 ft 392 kts 166°
2026-05-08 06:01 38.78275 14.18363 33450 ft 389 kts 165°
2026-05-08 06:02 38.75857 14.19857 33021 ft 384 kts 165°
2026-05-08 06:02 38.73483 14.21340 32605 ft 379 kts 165°
2026-05-08 06:02 38.71128 14.22803 32192 ft 376 kts 165°
2026-05-08 06:02 38.68740 14.24265 31785 ft 380 kts 165°
2026-05-08 06:03 38.66328 14.25726 31353 ft 380 kts 165°
2026-05-08 06:03 38.63955 14.27162 30926 ft 376 kts 165°
2026-05-08 06:03 38.61618 14.28575 30518 ft 371 kts 165°
2026-05-08 06:03 38.59305 14.29969 30123 ft 368 kts 165°
2026-05-08 06:04 38.56956 14.31370 29716 ft 381 kts 165°
2026-05-08 06:04 38.54490 14.32820 29294 ft 396 kts 164°
2026-05-08 06:04 38.51978 14.34306 28814 ft 399 kts 163°
2026-05-08 06:04 38.49480 14.35798 28298 ft 398 kts 163°
2026-05-08 06:05 38.46978 14.37301 27815 ft 395 kts 163°
2026-05-08 06:05 38.44523 14.38777 27348 ft 392 kts 163°
2026-05-08 06:05 38.42055 14.40259 26877 ft 388 kts 164°
2026-05-08 06:05 38.39647 14.41701 26409 ft 385 kts 164°
2026-05-08 06:06 38.37228 14.43147 25943 ft 381 kts 164°
2026-05-08 06:06 38.34838 14.44573 25486 ft 377 kts 164°
2026-05-08 06:06 38.32476 14.45980 25051 ft 374 kts 164°
2026-05-08 06:06 38.30133 14.47374 24609 ft 371 kts 165°
2026-05-08 06:07 38.27816 14.48751 24169 ft 367 kts 165°
2026-05-08 06:07 38.25509 14.50119 23729 ft 364 kts 165°
2026-05-08 06:07 38.23227 14.51472 23292 ft 362 kts 165°
2026-05-08 06:07 38.20946 14.52824 22861 ft 359 kts 165°
2026-05-08 06:08 38.18682 14.54164 22435 ft 356 kts 165°
2026-05-08 06:08 38.16454 14.55483 22011 ft 353 kts 165°
2026-05-08 06:08 38.14238 14.56794 21598 ft 350 kts 165°
2026-05-08 06:08 38.12051 14.58086 21195 ft 347 kts 165°
2026-05-08 06:09 38.09865 14.59376 20783 ft 344 kts 165°
2026-05-08 06:09 38.07700 14.60654 20372 ft 342 kts 165°
2026-05-08 06:09 38.05552 14.61920 19965 ft 339 kts 165°
2026-05-08 06:09 38.03419 14.63177 19562 ft 337 kts 165°
2026-05-08 06:10 38.01310 14.64420 19163 ft 334 kts 165°
2026-05-08 06:10 37.99206 14.65659 18767 ft 331 kts 165°
2026-05-08 06:10 37.97120 14.66887 18368 ft 328 kts 165°
2026-05-08 06:10 37.95076 14.68043 17965 ft 322 kts 168°
2026-05-08 06:11 37.92988 14.68962 17575 ft 312 kts 175°
2026-05-08 06:11 37.90897 14.69521 17186 ft 303 kts 181°
2026-05-08 06:11 37.88834 14.69778 16782 ft 291 kts 193°
2026-05-08 06:11 37.86944 14.69265 16427 ft 271 kts 211°
2026-05-08 06:12 37.85331 14.68121 16082 ft 264 kts 222°
2026-05-08 06:12 37.83947 14.66601 15687 ft 263 kts 233°
2026-05-08 06:12 37.82985 14.64677 15325 ft 256 kts 245°
2026-05-08 06:12 37.82239 14.62637 14947 ft 253 kts 247°
2026-05-08 06:13 37.81525 14.60631 14571 ft 251 kts 246°
2026-05-08 06:13 37.80796 14.58637 14077 ft 253 kts 246°
2026-05-08 06:13 37.80042 14.56626 13562 ft 251 kts 245°
2026-05-08 06:13 37.79295 14.54659 13050 ft 249 kts 245°
2026-05-08 06:14 37.78546 14.52693 12537 ft 247 kts 245°
2026-05-08 06:14 37.77814 14.50771 12035 ft 246 kts 245°
2026-05-08 06:14 37.77075 14.48834 11523 ft 244 kts 244°
2026-05-08 06:14 37.76182 14.47038 10977 ft 245 kts 231°
2026-05-08 06:15 37.74791 14.45785 10452 ft 252 kts 208°
2026-05-08 06:15 37.73060 14.45326 9991 ft 261 kts 191°
2026-05-08 06:15 37.71237 14.45411 9833 ft 264 kts 184°
2026-05-08 06:15 37.69374 14.45623 9558 ft 265 kts 182°
2026-05-08 06:16 37.67556 14.45849 9306 ft 265 kts 181°
2026-05-08 06:16 37.65689 14.46070 9055 ft 270 kts 180°
2026-05-08 06:16 37.63820 14.46286 8794 ft 271 kts 178°
2026-05-08 06:16 37.61975 14.46774 8561 ft 269 kts 163°
2026-05-08 06:17 37.58948 14.49506 7929 ft 270 kts 141°
2026-05-08 06:17 37.57524 14.51039 7598 ft 268 kts 143°
2026-05-08 06:17 37.56100 14.52512 7278 ft 266 kts 143°
2026-05-08 06:18 37.54665 14.53993 6959 ft 264 kts 142°
2026-05-08 06:18 37.53269 14.55447 6645 ft 262 kts 141°
2026-05-08 06:18 37.51871 14.56914 6342 ft 260 kts 141°
2026-05-08 06:18 37.50478 14.58382 6048 ft 259 kts 142°
2026-05-08 06:19 37.49106 14.59829 5760 ft 258 kts 143°
2026-05-08 06:19 37.47726 14.61282 5481 ft 256 kts 143°
2026-05-08 06:19 37.46375 14.62705 5202 ft 253 kts 144°
2026-05-08 06:19 37.45045 14.64106 5080 ft 241 kts 144°
2026-05-08 06:20 37.43886 14.65569 4986 ft 231 kts 127°
2026-05-08 06:20 37.43419 14.67421 4909 ft 223 kts 93°
2026-05-08 06:20 37.43493 14.69364 4805 ft 220 kts 87°
2026-05-08 06:20 37.43634 14.71267 4707 ft 219 kts 86°
2026-05-08 06:21 37.43790 14.73167 4610 ft 219 kts 86°
2026-05-08 06:21 37.43957 14.75082 4515 ft 218 kts 85°
2026-05-08 06:21 37.44123 14.76956 4443 ft 207 kts 85°
2026-05-08 06:21 37.44278 14.78711 4280 ft 202 kts 86°
2026-05-08 06:22 37.44429 14.80467 3979 ft 203 kts 86°
2026-05-08 06:22 37.44584 14.82252 3695 ft 203 kts 85°
2026-05-08 06:22 37.44736 14.84000 3418 ft 202 kts 85°
2026-05-08 06:22 37.44889 14.85764 3141 ft 201 kts 85°
2026-05-08 06:23 37.45039 14.87491 2873 ft 200 kts 85°
2026-05-08 06:23 37.45189 14.89233 2605 ft 199 kts 85°
2026-05-08 06:23 37.45338 14.90964 2333 ft 199 kts 85°
2026-05-08 06:23 37.45486 14.92687 2058 ft 198 kts 85°
2026-05-08 06:24 37.45634 14.94403 1789 ft 197 kts 85°
2026-05-08 06:24 37.45777 14.96068 1547 ft 185 kts 85°
2026-05-08 06:24 37.45905 14.97562 1322 ft 170 kts 85°
2026-05-08 06:24 37.46027 14.99006 1046 ft 161 kts 85°
2026-05-08 06:25 37.46138 15.00304 873 ft 160 kts 85°
2026-05-08 06:25 37.46256 15.01686 666 ft 158 kts 84°
2026-05-08 06:25 37.46373 15.03060 455 ft 157 kts 84°
2026-05-08 06:25 37.46488 15.04417 248 ft 156 kts 84°
2026-05-08 06:26 37.46610 15.05779 52 ft 154 kts 83°
2026-05-08 06:26 37.46731 15.07080 251 ft 152 kts 84°
2026-05-08 06:26 37.46865 15.08436 784 ft 160 kts 83°
2026-05-08 06:26 37.47007 15.09847 1341 ft 170 kts 83°
2026-05-08 06:27 37.47146 15.11357 1878 ft 180 kts 83°
2026-05-08 06:27 37.47296 15.12981 2398 ft 195 kts 83°
2026-05-08 06:27 37.47467 15.14779 2763 ft 222 kts 83°
2026-05-08 06:27 37.47680 15.16820 3130 ft 248 kts 83°
2026-05-08 06:28 37.47881 15.19112 2948 ft 265 kts 85°
2026-05-08 06:28 37.48062 15.21341 2951 ft 250 kts 85°
2026-05-08 06:28 37.48306 15.23463 2953 ft 245 kts 75°
2026-05-08 06:28 37.48878 15.25510 2956 ft 246 kts 70°
2026-05-08 06:29 37.49410 15.27558 2956 ft 245 kts 76°
2026-05-08 06:29 37.49761 15.29636 3187 ft 245 kts 81°
2026-05-08 06:29 37.50032 15.31794 3435 ft 247 kts 83°
2026-05-08 06:29 37.50272 15.33931 3683 ft 248 kts 86°
2026-05-08 06:30 37.50095 15.36064 3925 ft 246 kts 114°
2026-05-08 06:30 37.49145 15.37784 4180 ft 240 kts 144°
2026-05-08 06:30 37.47669 15.38644 4430 ft 234 kts 175°
2026-05-08 06:30 37.46083 15.38426 4671 ft 228 kts 204°
2026-05-08 06:31 37.44674 15.37486 4915 ft 227 kts 213°
2026-05-08 06:31 37.43338 15.36438 4979 ft 227 kts 214°
2026-05-08 06:31 37.42012 15.35389 4989 ft 224 kts 214°
2026-05-08 06:31 37.40692 15.34350 4993 ft 224 kts 214°
2026-05-08 06:32 37.39360 15.33306 4993 ft 223 kts 214°
2026-05-08 06:32 37.38052 15.32287 4993 ft 222 kts 214°
2026-05-08 06:32 37.36734 15.31263 4993 ft 221 kts 214°
2026-05-08 06:32 37.35431 15.30227 4990 ft 221 kts 219°
2026-05-08 06:33 37.34540 15.28699 4992 ft 221 kts 254°
2026-05-08 06:33 37.34572 15.26748 5008 ft 226 kts 279°
2026-05-08 06:33 37.34848 15.24807 4988 ft 224 kts 269°
2026-05-08 06:33 37.34838 15.22859 4994 ft 223 kts 266°
2026-05-08 06:34 37.34871 15.20922 4993 ft 223 kts 269°
2026-05-08 06:34 37.34942 15.18970 4995 ft 223 kts 269°
2026-05-08 06:34 37.35008 15.17010 4996 ft 223 kts 269°
2026-05-08 06:34 37.35071 15.15060 4998 ft 223 kts 269°
2026-05-08 06:35 37.35134 15.13100 4999 ft 224 kts 269°
2026-05-08 06:35 37.35197 15.11157 5000 ft 224 kts 269°
2026-05-08 06:35 37.35260 15.09198 5002 ft 224 kts 269°
2026-05-08 06:35 37.35324 15.07244 5003 ft 224 kts 269°
2026-05-08 06:36 37.35387 15.05292 5005 ft 224 kts 269°
2026-05-08 06:36 37.35449 15.03343 5007 ft 224 kts 269°
2026-05-08 06:36 37.35511 15.01384 5008 ft 224 kts 269°
2026-05-08 06:36 37.35573 14.99426 5010 ft 224 kts 269°
2026-05-08 06:37 37.35635 14.97461 5011 ft 224 kts 269°
2026-05-08 06:37 37.35696 14.95505 5012 ft 225 kts 269°
2026-05-08 06:37 37.35757 14.93549 5012 ft 225 kts 269°
2026-05-08 06:37 37.35818 14.91571 5013 ft 225 kts 270°
2026-05-08 06:38 37.35879 14.89611 5014 ft 225 kts 270°
2026-05-08 06:38 37.35939 14.87650 5014 ft 225 kts 270°
2026-05-08 06:38 37.36000 14.85659 5015 ft 226 kts 270°
2026-05-08 06:38 37.36059 14.83697 5016 ft 226 kts 270°
2026-05-08 06:39 37.36118 14.81722 5017 ft 226 kts 270°
2026-05-08 06:39 37.36178 14.79740 5017 ft 226 kts 270°
2026-05-08 06:39 37.36236 14.77790 5018 ft 226 kts 270°
2026-05-08 06:39 37.36295 14.75808 5019 ft 227 kts 270°
2026-05-08 06:40 37.36353 14.73822 5019 ft 227 kts 270°
2026-05-08 06:40 37.36411 14.71850 5020 ft 227 kts 270°
2026-05-08 06:40 37.36537 14.69846 5018 ft 229 kts 278°
2026-05-08 06:40 37.37167 14.68011 5017 ft 236 kts 307°
2026-05-08 06:41 37.38495 14.66797 5021 ft 239 kts 336°
2026-05-08 06:41 37.40087 14.66371 5026 ft 226 kts 351°
2026-05-08 06:41 37.41588 14.66548 5003 ft 214 kts 19°
2026-05-08 06:41 37.42778 14.67617 5016 ft 213 kts 50°
2026-05-08 06:42 37.43424 14.69271 5013 ft 212 kts 80°
2026-05-08 06:42 37.43620 14.71111 5011 ft 211 kts 86°
2026-05-08 06:42 37.43771 14.72958 5009 ft 211 kts 86°
2026-05-08 06:42 37.43928 14.74758 4916 ft 206 kts 85°
2026-05-08 06:43 37.44088 14.76553 4613 ft 207 kts 86°
2026-05-08 06:43 37.44247 14.78368 4315 ft 207 kts 86°
2026-05-08 06:43 37.44403 14.80165 4030 ft 206 kts 86°
2026-05-08 06:43 37.44558 14.81947 3752 ft 206 kts 86°
2026-05-08 06:44 37.44713 14.83729 3470 ft 205 kts 85°
2026-05-08 06:44 37.44868 14.85522 3187 ft 205 kts 85°
2026-05-08 06:44 37.45021 14.87292 2887 ft 204 kts 85°
2026-05-08 06:44 37.45172 14.89032 2631 ft 198 kts 85°
2026-05-08 06:45 37.45319 14.90739 2367 ft 194 kts 85°
2026-05-08 06:45 37.45462 14.92405 2100 ft 193 kts 85°
2026-05-08 06:45 37.45606 14.94076 1866 ft 183 kts 85°
2026-05-08 06:45 37.45738 14.95611 1632 ft 169 kts 85°
2026-05-08 06:46 37.45860 14.97043 1349 ft 162 kts 85°
2026-05-08 06:46 37.45979 14.98440 1167 ft 160 kts 86°
2026-05-08 06:46 37.46098 14.99832 949 ft 159 kts 85°
2026-05-08 06:46 37.46215 15.01218 735 ft 159 kts 84°
2026-05-08 06:47 37.46332 15.02580 527 ft 157 kts 84°
2026-05-08 06:47 37.46447 15.03933 322 ft 154 kts 83°
2026-05-08 06:47 37.46563 15.05278 108 ft 153 kts 82°
2026-05-08 06:47 37.46669 15.06527 32 ft 113 kts 84°
2026-05-08 06:48 37.46729 15.07231 33 ft 59 kts 84°
2026-05-08 06:48 37.46779 15.07605 33 ft 31 kts 69°
2026-05-08 06:48 37.46856 15.07774 34 ft 10 kts 53°
2026-05-08 06:48 37.46913 15.07809 34 ft 9 kts 332°
2026-05-08 06:49 37.46935 15.07738 35 ft 8 kts 268°
2026-05-08 06:49 37.46928 15.07641 35 ft 14 kts 264°
2026-05-08 06:49 37.46915 15.07491 34 ft 20 kts 263°
2026-05-08 06:49 37.46898 15.07288 34 ft 25 kts 263°
2026-05-08 06:50 37.46884 15.07120 34 ft 14 kts 264°
2026-05-08 06:50 37.46874 15.07005 34 ft 11 kts 263°
2026-05-08 06:50 37.46869 15.06933 33 ft 8 kts 264°
2026-05-08 06:50 37.46862 15.06851 31 ft 10 kts 264°
2026-05-08 06:51 37.46859 15.06788 31 ft 4 kts 287°
2026-05-08 06:51 37.46881 15.06771 31 ft 4 kts 348°
2026-05-08 06:51 37.46912 15.06766 32 ft 4 kts 354°
2026-05-08 06:51 37.46926 15.06765 32 ft 0 kts 354°
2026-05-08 06:52 37.46927 15.06764 32 ft 0 kts 354°